TimeEDT,TemperatureF,Dew PointF,Humidity,Sea Level PressureIn,VisibilityMPH,Wind Direction,Wind SpeedMPH,Gust SpeedMPH,PrecipitationIn,Events,Conditions,WindDirDegrees,DateUTC
12:53 AM,53.6,53.6,100,30.08,10.0,Calm,Calm,-,N/A,,Clear,0,2013-05-01 04:53:00
1:53 AM,53.1,53.1,100,30.08,9.0,Calm,Calm,-,N/A,,Clear,0,2013-05-01 05:53:00
2:34 AM,51.8,51.8,100,30.08,1.8,Calm,Calm,-,N/A,,Clear,0,2013-05-01 06:34:00
2:43 AM,51.8,51.8,100,30.08,3.0,Calm,Calm,-,N/A,,Clear,0,2013-05-01 06:43:00
2:53 AM,52.0,52.0,100,30.08,8.0,Calm,Calm,-,N/A,,Clear,0,2013-05-01 06:53:00
3:53 AM,52.0,52.0,100,30.08,5.0,Calm,Calm,-,N/A,,Clear,0,2013-05-01 07:53:00
4:03 AM,51.8,51.8,100,30.09,1.5,Calm,Calm,-,N/A,,Clear,0,2013-05-01 08:03:00
4:18 AM,50.0,50.0,100,30.10,0.8,Calm,Calm,-,N/A,,Mist,0,2013-05-01 08:18:00
4:21 AM,50.0,50.0,100,30.10,1.2,Calm,Calm,-,N/A,,Partly Cloudy,0,2013-05-01 08:21:00
4:23 AM,51.8,51.8,100,30.10,5.0,Calm,Calm,-,N/A,,Clear,0,2013-05-01 08:23:00
4:30 AM,51.8,51.8,100,30.10,1.5,Calm,Calm,-,N/A,,Clear,0,2013-05-01 08:30:00
4:38 AM,51.8,51.8,100,30.10,0.5,Calm,Calm,-,N/A,Fog,Fog,0,2013-05-01 08:38:00
4:48 AM,50.0,50.0,100,30.11,2.0,Calm,Calm,-,N/A,,Clear,0,2013-05-01 08:48:00
4:53 AM,50.0,50.0,100,30.10,9.0,Calm,Calm,-,N/A,,Clear,0,2013-05-01 08:53:00
5:04 AM,51.8,51.8,100,30.11,1.8,Calm,Calm,-,N/A,,Clear,0,2013-05-01 09:04:00
5:12 AM,51.8,51.8,100,30.11,3.0,Calm,Calm,-,N/A,,Clear,0,2013-05-01 09:12:00
5:17 AM,51.8,51.8,100,30.11,1.8,Calm,Calm,-,N/A,,Clear,0,2013-05-01 09:17:00
5:47 AM,48.2,48.2,100,30.12,2.0,Calm,Calm,-,N/A,,Partly Cloudy,0,2013-05-01 09:47:00
5:53 AM,50.0,48.2,94,30.12,1.5,Calm,Calm,-,N/A,,Partly Cloudy,0,2013-05-01 09:53:00
6:00 AM,48.2,48.2,100,30.12,3.0,Calm,Calm,-,N/A,,Partly Cloudy,0,2013-05-01 10:00:00
6:07 AM,48.2,48.2,100,30.12,1.5,Calm,Calm,-,N/A,,Partly Cloudy,0,2013-05-01 10:07:00
6:09 AM,48.2,48.2,100,30.12,0.8,Calm,Calm,-,N/A,,Mist,0,2013-05-01 10:09:00
6:22 AM,48.2,48.2,100,30.13,1.5,Calm,Calm,-,N/A,,Partly Cloudy,0,2013-05-01 10:22:00
6:29 AM,48.2,48.2,100,30.13,10.0,Calm,Calm,-,N/A,,Clear,0,2013-05-01 10:29:00
6:33 AM,48.2,48.2,100,30.13,1.5,Calm,Calm,-,N/A,,Clear,0,2013-05-01 10:33:00
6:51 AM,48.2,48.2,100,30.13,5.0,Calm,Calm,-,N/A,Fog,Patches of Fog,0,2013-05-01 10:51:00
6:53 AM,48.2,48.2,100,30.13,5.0,Calm,Calm,-,N/A,Fog,Patches of Fog,0,2013-05-01 10:53:00
7:53 AM,53.1,53.1,100,30.15,10.0,Calm,Calm,-,N/A,Fog,Patches of Fog,0,2013-05-01 11:53:00
8:53 AM,57.2,55.4,94,30.18,10.0,Calm,Calm,-,N/A,,Clear,0,2013-05-01 12:53:00
9:53 AM,64.9,57.9,78,30.18,10.0,Calm,Calm,-,N/A,,Clear,0,2013-05-01 13:53:00
10:53 AM,71.6,60.8,69,30.18,10.0,Calm,Calm,-,N/A,,Clear,0,2013-05-01 14:53:00
11:53 AM,75.9,60.1,58,30.17,10.0,Calm,Calm,-,N/A,,Clear,0,2013-05-01 15:53:00
12:53 PM,79.0,55.9,45,30.16,10.0,SE,4.6,-,N/A,,Clear,130,2013-05-01 16:53:00
1:53 PM,81.0,57.0,44,30.15,10.0,SSE,4.6,-,N/A,,Partly Cloudy,160,2013-05-01 17:53:00
2:53 PM,82.0,55.9,41,30.15,10.0,South,4.6,-,N/A,,Scattered Clouds,180,2013-05-01 18:53:00
3:53 PM,82.0,55.9,41,30.14,10.0,ENE,5.8,-,N/A,,Mostly Cloudy,70,2013-05-01 19:53:00
4:53 PM,82.0,57.0,42,30.14,10.0,ENE,8.1,-,N/A,,Mostly Cloudy,60,2013-05-01 20:53:00
5:53 PM,82.0,55.9,41,30.13,10.0,East,4.6,-,N/A,,Clear,90,2013-05-01 21:53:00
6:53 PM,81.0,55.0,41,30.13,10.0,East,9.2,-,N/A,,Clear,90,2013-05-01 22:53:00
7:53 PM,78.1,53.1,42,30.13,10.0,East,4.6,-,N/A,,Clear,80,2013-05-01 23:53:00
8:53 PM,70.0,57.9,65,30.14,10.0,Calm,Calm,-,N/A,,Clear,0,2013-05-02 00:53:00
9:53 PM,66.9,57.0,70,30.15,10.0,NNE,4.6,-,N/A,,Clear,30,2013-05-02 01:53:00
10:53 PM,64.0,57.0,78,30.17,10.0,NNE,3.5,-,N/A,,Clear,30,2013-05-02 02:53:00
11:53 PM,62.1,57.0,84,30.17,10.0,NE,3.5,-,N/A,,Mostly Cloudy,50,2013-05-02 03:53:00